Location: Ast�
(43.0409°N, 0.1694°E)
Time: 20:59:36
(UTC+00:00)

Daily predictions for brighter satellites

Satellite Brightness Start Highest point End
(mag) Time Altitude Azimuth Time Altitude Azimuth Time Altitude Azimuth
Cosmos 1000 Rocket 4.5 17:21:25 10° N 17:27:36 70° E 17:33:48 10° SSE
BREEZE-M R/B 3.3 17:24:48 10° WNW 17:28:30 38° N 17:32:10 10° ENE
NOSS 2-3 (D) 3.7 17:25:04 10° SSW 17:28:53 48° ESE 17:33:11 10° NE
Meteor 1-21 Rocket 4.4 17:23:15 10° N 17:29:12 88° E 17:35:08 10° S
YAOGAN 1 4.3 17:27:39 10° E 17:29:46 14° ENE 17:31:55 10° NNE
Cosmos 1953 2.5 17:25:49 10° S 17:29:52 81° W 17:33:57 10° N
Cosmos 2278 4.4 17:26:16 10° SW 17:31:51 58° WNW 17:37:29 10° NNE
NOSS 3-1 (C) 3.2 17:27:19 10° SSW 17:32:24 65° ESE 17:38:20 10° NE
ATLAS 5 CENTAUR R/B 3.0 17:29:51 10° WSW 17:33:19 30° NW 17:37:12 10° NNE
Cosmos 44 4.3 17:29:58 10° S 17:34:43 32° ESE 17:39:26 10° NE
Lacrosse 4 Rocket 2.2 17:33:55 10° NNW 17:37:54 34° NE 17:41:55 10° ESE
CORIOLIS 4.3 17:33:55 10° SSE 17:39:16 84° WSW 17:44:39 10° NNW
Cosmos 1300 2.9 17:37:22 10° SSE 17:41:01 48° E 17:44:42 10° NNE
NOSS 2-3 (C) 3.4 17:37:25 10° SSW 17:41:22 70° ESE 17:45:53 10° NE
Cosmos 1544 Rocket 3.7 17:37:48 10° S 17:42:08 52° E 17:46:28 10° NNE
NOSS 8 (H) 4.2 17:39:38 10° SSW 17:43:07 65° SE 17:46:04 10° NE
CZ-2C R/B 4.4 17:37:28 10° S 17:43:07 51° W 17:48:40 10° NNW
SL-16 R/B 2.2 17:37:50 10° SSW 17:43:26 67° ESE 17:49:05 10° NNE
NOSS 2 (A) 4.4 17:41:15 10° NNW 17:43:53 46° NE 17:46:14 10° SE
Cosmos 2251 Rocket 4.3 17:39:56 10° N 17:44:31 29° ENE 17:49:04 10° ESE
Cosmos 1821 Rocket 4.4 17:40:34 10° SSW 17:46:56 70° W 17:53:16 10° N
SL-19 R/B 4.2 17:48:08 10° NNE 17:53:48 76° ESE 17:59:22 10° SSW
Cosmos 2322 Rocket 2.2 17:49:25 10° S 17:54:55 62° ESE 18:00:29 10° NNE
Cosmos 1934 Rocket 3.9 17:49:57 10° S 17:56:00 76° E 18:02:04 10° N
deb Chang Zheng 4 3.4 17:54:03 10° SSE 17:58:15 85° ENE 18:02:29 10° NNW
CZ-4C R/B 3.3 17:57:13 10° NNE 18:00:20 37° E 18:03:21 10° SSE
Cosmos 2219 Rocket 3.6 17:57:20 10° SE 18:00:35 16° E 18:01:22 15° E
Cosmos 304 Rocket 3.7 17:56:32 10° S 18:01:15 67° ESE 18:06:02 10° NNE
Okean O Rocket 1.6 17:57:10 10° SSE 18:01:25 60° ENE 18:05:44 10° N
Iridium 4 Rocket 3.3 17:57:52 10° N 18:02:38 73° E 18:07:51 10° S
Cosmos 2360 Rocket 2.5 17:58:36 10° S 18:03:54 44° ESE 18:09:15 10° NE
Cosmos 614 Rocket 4.2 17:59:08 10° N 18:03:59 43° ENE 18:08:51 10° SE
Meteor 1-4 Rocket 2.5 18:01:56 10° S 18:05:18 50° E 18:08:39 10° NNE
CZ-4 R/B 2.3 18:02:11 10° SE 18:05:38 28° ENE 18:09:10 10° N
Cosmos 1844 4.3 18:01:31 10° N 18:06:49 35° NE 18:11:17 13° ESE
FALCON 9 DEB 3.7 18:04:38 10° SSW 18:07:16 30° SE 18:08:09 25° ESE
ARGOS 3.2 18:02:56 10° SSE 18:08:13 59° ENE 18:13:34 10° N
Cosmos 1602 Rocket 3.7 18:04:52 10° N 18:09:04 47° ENE 18:13:13 10° SSE
Cosmos 2333 Rocket 3.1 18:09:56 10° SSE 18:14:33 26° ESE 18:17:13 19° ENE
COSMO-SKYMED 1 2.5 18:11:16 10° NNE 18:15:38 88° W 18:19:58 10° SSW
CZ-2C R/B 3.7 18:15:13 10° SW 18:16:39 12° SSW 18:18:01 10° S
CZ-4B R/B 3.5 18:13:58 10° S 18:19:37 75° WSW 18:25:18 10° NNW
Okean 1-7 Rocket 4.2 18:16:23 10° NNW 18:20:45 59° W 18:25:08 10° S
SL-8 R/B 4.4 18:18:15 10° WNW 18:22:50 43° N 18:25:25 23° ENE
Cosmos 2263 Rocket 4.0 18:18:10 10° NW 18:23:05 33° WSW 18:27:58 10° SSW
Spot 2 4.0 18:19:20 10° SSE 18:23:25 58° ENE 18:27:45 10° N
Cosmos 839 Rocket 4.2 18:16:37 10° NNW 18:24:09 86° ENE 18:30:26 10° SSE
In-Cosmos 22 Rocket 4.1 18:19:04 10° N 18:24:19 58° ENE 18:29:33 10° SSE
Cosmos 332 Rocket 4.0 18:20:46 10° SSW 18:25:38 73° WNW 18:30:32 10° NNE
Feng Yun 1-1 Rocket 4.2 18:20:42 10° SSE 18:26:13 67° ENE 18:31:56 10° N
Okean-O 3.5 18:26:33 28° ENE 18:26:41 28° ENE 18:30:28 10° N
Cosmos 2123 Rocket 4.5 18:22:15 10° NNW 18:28:30 65° W 18:34:41 10° S
CZ-2C R/B 2.8 18:24:24 10° NNE 18:30:01 84° WNW 18:35:30 10° SSW
USA 215 4.2 18:24:10 10° NE 18:30:15 43° NNW 18:36:20 10° W
Cosmos 1825 Rocket 4.1 18:27:21 10° N 18:31:17 33° ENE 18:31:17 33° ENE
H-2A R/B 2.4 18:27:19 10° SSE 18:31:34 67° ENE 18:35:40 10° N
FALCON 9 DEB 2.6 18:31:24 10° SW 18:34:19 70° SE 18:34:22 70° SE
Cosmos 2228 3.2 18:31:05 10° SSE 18:35:17 48° E 18:39:33 10° NNE
Cosmos 1892 2.5 18:32:12 10° N 18:35:57 67° E 18:39:36 10° SSE
Cosmos 2322 4.2 18:31:18 10° S 18:36:26 36° ESE 18:38:00 30° ENE
USA 229 DEB 3.6 18:30:21 10° SW 18:36:42 84° NW 18:43:32 10° NE
USA 229 3.6 18:30:28 10° SW 18:36:48 85° NW 18:43:38 10° NE
Cosmos 1758 Rocket 3.4 18:34:27 10° N 18:38:46 64° E 18:43:04 10° SSE
CSL-04 Rocket 4.3 18:39:01 32° E 18:40:06 35° ENE 18:45:06 10° N
Cosmos 2344 4.3 18:31:16 10° NW 18:40:35 78° NE 18:53:43 10° SE
Cosmos 1408 2.3 18:39:00 10° N 18:42:36 72° E 18:43:38 43° SSE
Cosmos 1459 Rocket 4.2 18:40:15 10° SSE 18:45:59 41° E 18:51:40 10° NNE
FALCON 9 DEB 3.8 18:45:33 10° SW 18:47:36 39° SSW 18:47:36 39° SSW
SL-08 RB Rocket 3.7 18:44:23 10° S 18:48:56 82° WSW 18:53:34 10° NNW
H-2A R/B 3.7 18:44:53 10° SSW 18:49:52 38° W 18:54:56 10° NNW
X-37B 1.9 18:47:13 10° W 18:50:33 38° SSW 18:51:10 35° S
Cosmos 2100 Rocket 4.1 18:45:43 10° SSE 18:51:46 51° E 18:57:54 10° NNE
Meteor 2-10 Rocket 4.0 18:46:20 10° SSW 18:51:51 65° WNW 18:57:09 10° N
Cosmos 1844 Rocket 2.6 18:49:50 10° NNW 18:55:26 86° WSW 18:59:39 18° SSE
NOSS 3-1 (A) 3.8 18:54:09 10° SW 18:59:21 56° NW 19:04:32 14° NNE
Tiangong 2.4 18:57:51 10° W 19:00:17 36° SW 19:00:17 36° SW
Cosmos 2173 Rocket 4.0 18:56:12 10° S 19:02:15 57° E 19:08:23 10° NNE
USA 267 4.0 18:57:35 10° SSE 19:03:53 50° SW 19:10:13 10° WNW
DMSP B5D2-2 3.9 18:58:58 10° NNE 19:04:15 87° ESE 19:09:28 10° SSW
YAOGAN 1 2.9 19:01:04 10° S 19:05:20 63° WSW 19:09:39 10° NNW
BREEZE-M DEB (TANK) 3.4 19:02:33 10° WNW 19:06:16 48° NW 19:06:16 48° NW
Milstar 3 Cent rocket 4.4 19:02:14 10° SSW 19:07:47 26° SSE 19:09:20 24° SE
H-2A R/B 1.9 19:07:49 76° N 19:08:07 87° WNW 19:12:21 10° SSW
Cosmos 1455 3.4 19:04:34 10° SSW 19:06:47 33° SSW 19:06:47 33° SSW
CENTAUR R/B 4.3 19:05:23 10° NNW 19:11:28 24° NNE 19:12:59 23° NE
Orbus 7S? 3.6 19:05:22 10° NW 19:12:47 85° NE 19:12:53 84° E
Lacrosse 4 Rocket 3.6 19:12:49 10° NW 19:16:25 25° WSW 19:20:02 10° SSW
Cosmos 1606 Rocket 3.6 19:12:55 10° SSW 19:17:23 77° W 19:17:34 75° NW
Cosmos 1825 4.1 19:14:55 10° NNW 19:16:20 22° NNW 19:16:20 22° NNW
COSMOS 2428 3.5 19:13:25 10° S 19:16:52 36° SSE 19:16:52 36° SSE
Cosmos 1140 Rocket 3.3 19:16:00 10° NNW 19:21:14 87° ENE 19:21:15 86° E
Cosmos 2278 Rocket 3.7 19:17:45 10° N 19:20:29 22° NNE 19:20:29 22° NNE
Cosmos 407 Rocket 3.4 19:17:57 10° NNW 19:23:19 86° WSW 19:23:45 76° S
Cosmos 2333 4.3 19:19:36 10° SSW 19:25:13 73° WNW 19:27:52 33° NNE
SL-16 R/B 4.5 19:23:47 10° W 19:28:04 22° NW 19:32:23 10° N
Cosmos 2322 Rocket 4.4 19:35:05 10° W 19:39:26 22° NW 19:43:47 10° N
CZ-4 R/B 3.6 19:37:17 10° SSW 19:40:35 24° W 19:43:57 10° NW
Cosmos 2219 Rocket 2.4 19:38:16 10° SSW 19:43:11 66° WSW 19:43:11 66° WSW
Cosmos 2360 Rocket 3.9 19:43:08 10° WSW 19:48:03 30° NW 19:53:01 10° N
Cosmos 2333 Rocket 3.0 19:53:05 10° SW 19:58:31 47° WNW 19:59:20 44° NW
CENTAUR R/B 4.2 20:55:44 10° NNW 21:00:09 36° NNW 21:00:09 36° NNW
